Location: Caltech
(34.1382°N, 118.1253°W)
Time: 10:36:06
(UTC-07:00)

Cosmos 2219 Rocket - Visible Passes

Search period start: 23 April 2018 00:00
Search period end: 03 May 2018 00:00
Orbit: 828 x 846 km, 71.0° (Epoch: 22 April)

Date Brightness Start Highest point End Pass type
(mag) Time Alt. Az. Time Alt. Az. Time Alt. Az.
23 Apr 4.6 05:09:53 10° N 05:14:30 26° ENE 05:19:06 10° ESE visible
23 Apr 2.4 19:55:24 10° SSW 20:01:04 83° WNW 20:06:46 10° NNE visible
23 Apr 5.6 21:44:53 10° WNW 21:45:51 10° NW 21:46:49 10° NW visible
24 Apr 4.7 04:53:38 10° N 04:58:06 24° ENE 05:02:32 10° ESE visible
24 Apr 5.6 21:27:37 10° WNW 21:29:24 11° NW 21:31:12 10° NW visible
25 Apr 4.8 04:37:24 10° N 04:41:42 22° ENE 04:45:57 10° ESE visible
25 Apr 5.5 21:10:39 10° WNW 21:12:58 12° NW 21:15:18 10° NNW visible
26 Apr 4.9 04:21:10 10° N 04:25:17 20° ENE 04:29:21 10° ESE visible
26 Apr 5.5 20:53:49 10° W 20:56:32 14° NW 20:59:17 10° NNW visible
27 Apr 4.9 04:04:58 10° NNE 04:08:51 19° ENE 04:12:43 10° ESE visible
27 Apr 5.4 20:37:01 10° W 20:40:06 15° NW 20:43:11 10° NNW visible
28 Apr 5.0 03:48:47 10° NNE 03:52:26 17° ENE 03:56:04 10° E visible
28 Apr 2.2 05:31:16 10° NNW 05:36:45 57° WSW 05:42:10 10° S visible
28 Apr 5.3 20:20:18 10° W 20:23:40 16° NW 20:27:04 10° NNW visible
29 Apr 5.0 03:32:37 10° NNE 03:36:01 16° NE 03:39:23 10° E visible
29 Apr 2.2 05:14:52 10° NNW 05:20:23 62° WSW 05:25:52 10° S visible
29 Apr 5.2 20:03:36 10° W 20:07:15 17° WNW 20:10:54 10° NNW visible
30 Apr 5.1 03:16:29 10° NNE 03:19:35 15° NE 03:22:39 10° E visible
30 Apr 2.1 04:58:29 10° NNW 05:04:01 68° WSW 05:09:33 10° S visible
01 May 5.1 03:00:24 10° NNE 03:03:09 14° NE 03:05:53 10° E visible
01 May 2.1 04:42:05 10° NNW 04:47:40 75° WSW 04:53:13 10° SSE visible
02 May 5.1 02:44:23 10° NNE 02:46:43 13° NE 02:49:02 10° ENE visible
02 May 2.0 04:25:43 10° NNW 04:31:19 81° WSW 04:36:52 10° SSE visible
